#timestamp,LO_Frequency,Hit,StdDev 
1514160015.3,286046998.9,N
1514160035.2,286046996.7,N
1514160055.0,286046997.2,N
1514160055.9,286046997.2,N
1514160075.7,286046994.2,Y
1514160095.6,286046995.8,P
1514160115.4,286046997.3,N
1514160135.3,286046995.7,P
1514160155.1,286046995.5,Y
1514160175.8,286047001.2,P
1514160195.7,286047001.3,N
1514160215.5,286047000.2,N
1514160235.4,286047002.7,N
1514160255.2,286047002.8,N
1514160275.0,286047000.3,N
1514160275.9,286047000.3,N
1514160295.8,286047000.9,N
1514160315.6,286047003.1,N
1514160335.5,286047005.6,Y
1514160355.3,286047002.1,P
1514160375.1,286046999.5,N
1514160395.9,286046996.7,P
1514160415.7,286046999.2,N
1514160435.5,286046995.1,N
1514160455.4,286046994.7,N
1514160475.2,286046994.4,N
1514160495.1,286046992.5,N
1514160496.0,286046992.5,N
1514160515.8,286046992.9,N
1514160535.6,286046991.5,N
1514160555.5,286046990.5,N
1514160575.3,286046990.7,N
1514160595.2,286046994.2,N
1514160615.9,286046995.4,N
1514160635.7,286046996.2,N
1514160655.6,286046996.4,N
1514160675.4,286046995.6,N
1514160695.2,286046996.6,N
1514160715.1,286046999.2,N
1514160716.0,286046999.2,N
1514160735.8,286046999.5,N
1514160755.7,286046998.9,N
1514160775.5,286046995.5,N
1514160795.3,286046995.0,N
1514160815.2,286046997.9,N
1514160835.0,286046997.2,N
1514160835.9,286046997.2,N
1514160855.8,286046999.7,N
1514160875.6,286047002.2,N
1514160895.4,286046998.7,N
1514160915.3,286046998.5,N
1514160935.1,286046999.1,N
1514160955.8,286047002.6,N
1514160975.7,286047001.1,N
1514160995.5,286047001.0,N
1514161015.4,286047000.7,N
1514161035.2,286047000.9,N
1514161055.0,286047001.0,N
1514161055.9,286047001.0,N
1514161075.8,286047001.5,N
1514161095.6,286047001.4,N
1514161115.5,286047002.5,N
1514161135.3,286047004.4,N
1514161155.1,286047001.6,N
1514161175.9,286046999.1,N
1514161195.7,286046999.1,N
1514161215.5,286047001.8,N
1514161235.4,286047001.0,N
1514161255.2,286046998.7,N
1514161275.1,286046999.9,N
1514161276.0,286046999.9,N
1514161295.8,286047001.8,N
1514161315.6,286047000.6,N
1514161335.5,286046996.6,N
1514161355.3,286046997.7,N
1514161375.2,286046995.6,N
1514161395.9,286046993.7,Y
1514161415.7,286046995.9,P
1514161435.6,286046995.0,N
1514161455.4,286046993.9,N
1514161475.3,286046992.2,Y
1514161495.1,286046995.7,P
1514161496.0,286046995.7,P
1514161515.8,286046999.1,P
1514161535.7,286046995.2,Y
1514161555.5,286046998.5,P
1514161575.3,286047001.2,N
1514161595.2,286047000.2,N
1514161615.0,286047002.7,N
1514161615.9,286047002.7,N
1514161635.8,286046998.9,N
1514161655.6,286046999.7,N
1514161675.4,286047002.4,N
1514161695.3,286047001.1,N
1514161715.1,286047000.0,N
1514161735.9,286046998.5,N
1514161755.7,286046999.0,N
1514161775.5,286046997.3,N
1514161795.4,286046997.2,N
1514161815.2,286046999.0,N
1514161835.0,286046997.2,N
1514161835.9,286046997.2,N
1514161855.8,286046995.1,N
1514161875.6,286046999.1,N
1514161895.5,286046997.1,N
1514161915.3,286046996.7,N
1514161935.1,286046996.5,N
1514161955.9,286047000.5,N
1514161975.7,286046996.5,N
1514161995.5,286046999.5,N
1514162015.4,286046998.2,N
1514162035.2,286046998.1,N
1514162055.1,286046999.9,N
1514162056.0,286046999.9,N
1514162075.8,286047000.7,N
1514162095.6,286047001.2,N
1514162115.5,286047000.0,N
1514162135.3,286047000.2,N
1514162155.2,286046999.7,N
1514162175.9,286046999.9,N
1514162195.7,286047000.2,N
1514162215.6,286046999.0,N
1514162235.4,286046998.8,N
1514162255.2,286046996.7,N
1514162275.1,286046999.5,N
1514162276.0,286046999.5,N
1514162295.8,286046998.9,N
1514162315.7,286046998.4,N
1514162335.5,286046999.6,N
1514162355.3,286046998.4,N
1514162375.2,286047000.1,N
1514162395.0,286046998.4,N
1514162395.9,286046998.4,N
1514162415.8,286046996.5,N
1514162435.6,286047000.4,N
1514162455.4,286046999.9,N
1514162475.3,286047002.6,N
1514162495.1,286046999.0,N
1514162515.8,286046998.2,N
1514162535.7,286046998.4,N
1514162555.5,286047002.6,N
1514162575.4,286047001.6,N
1514162595.2,286047003.9,N
1514162615.0,286047003.9,N
1514162615.9,286047003.9,N
1514162635.8,286047002.4,N
1514162655.6,286046998.3,N
1514162675.4,286046998.4,N
1514162695.3,286046998.4,N
1514162715.1,286046998.7,N
1514162735.9,286046997.3,N
1514162755.7,286046997.8,N
1514162775.5,286046996.8,N
1514162795.4,286046997.9,N
1514162815.2,286046997.4,N
1514162835.1,286046999.6,N
1514162836.0,286046999.6,N
1514162855.8,286046998.4,N
1514162875.6,286046999.2,N
1514162895.5,286047001.1,N
1514162915.3,286047002.8,N
1514162935.1,286047011.9,Y
1514162955.9,286047001.7,P
1514162975.7,286047004.1,P
1514162995.6,286047001.3,N
1514163015.4,286047002.7,N
1514163035.2,286047005.5,Y
1514163055.1,286047001.7,P
1514163056.0,286047001.7,P
1514163075.8,286046999.7,P
1514163095.7,286047000.2,N
1514163115.5,286047002.5,N
1514163135.3,286046998.2,N
1514163155.2,286046998.8,N
1514163175.0,286046999.8,N
1514163175.9,286046999.8,N
1514163195.7,286046999.9,N
1514163215.6,286047002.7,N
1514163235.4,286047000.7,N
1514163255.3,286047001.7,N
1514163275.1,286047001.6,N
1514163295.8,286046999.7,N
1514163315.7,286047002.0,N
1514163335.5,286047003.8,N
1514163355.4,286047003.1,N
1514163375.2,286047000.5,N
1514163395.0,286047002.3,N
1514163395.9,286047002.3,N
1514163415.8,286047003.6,N
1514163435.6,286047001.9,N
1514163455.5,286047001.9,N
1514163475.3,286047002.4,N
1514163495.1,286047002.4,N
1514163515.9,286047002.2,N
1514163535.7,286047006.0,Y
1514163555.5,286047000.8,P
1514163575.4,286047000.3,N
1514163595.2,286046998.2,P
